TimeMDT,TemperatureF,Dew PointF,Humidity,Sea Level PressureIn,VisibilityMPH,Wind Direction,Wind SpeedMPH,Gust SpeedMPH,PrecipitationIn,Events,Conditions,WindDirDegrees,DateUTC
12:58 AM,35.2,27.7,74,30.15,10.0,South,6.9,-,N/A,,Clear,170,2013-03-28 06:58:00
1:58 AM,34.3,27.0,74,30.15,10.0,Calm,Calm,-,N/A,,Clear,0,2013-03-28 07:58:00
2:58 AM,26.8,23.9,89,30.13,10.0,North,2.3,-,N/A,,Clear,360,2013-03-28 08:58:00
3:58 AM,26.1,23.5,90,30.12,10.0,North,6.9,-,N/A,,Clear,360,2013-03-28 09:58:00
4:58 AM,25.3,22.5,89,30.10,10.0,NNW,5.8,-,N/A,,Clear,340,2013-03-28 10:58:00
5:58 AM,25.7,23.0,89,30.09,10.0,North,8.1,-,N/A,,Clear,350,2013-03-28 11:58:00
6:58 AM,27.3,24.4,89,30.12,10.0,North,8.1,-,N/A,,Clear,360,2013-03-28 12:58:00
7:58 AM,31.3,27.1,85,30.11,10.0,North,5.8,-,N/A,,Clear,350,2013-03-28 13:58:00
8:58 AM,36.1,29.8,78,30.11,10.0,Calm,Calm,-,N/A,,Clear,0,2013-03-28 14:58:00
9:58 AM,43.0,27.1,54,30.10,10.0,SW,1.2,-,N/A,,Clear,220,2013-03-28 15:58:00
10:58 AM,49.3,24.4,38,30.07,10.0,SSE,4.6,-,N/A,,Partly Cloudy,150,2013-03-28 16:58:00
11:58 AM,58.8,16.9,19,30.01,10.0,South,5.8,-,N/A,,Partly Cloudy,180,2013-03-28 17:58:00
12:58 PM,60.1,14.0,16,30.00,10.0,NW,4.6,-,N/A,,Partly Cloudy,310,2013-03-28 18:58:00
1:58 PM,57.4,16.0,20,30.01,10.0,NE,5.8,-,N/A,,Clear,50,2013-03-28 19:58:00
2:58 PM,55.8,19.8,25,30.06,10.0,NNE,10.4,-,N/A,,Partly Cloudy,20,2013-03-28 20:58:00
3:58 PM,55.2,22.5,28,30.07,10.0,Variable,4.6,-,N/A,,Clear,0,2013-03-28 21:58:00
4:58 PM,55.6,23.4,29,30.08,10.0,WNW,6.9,-,N/A,,Partly Cloudy,300,2013-03-28 22:58:00
5:58 PM,55.4,21.9,27,30.08,10.0,Variable,1.2,-,N/A,,Clear,0,2013-03-28 23:58:00
6:58 PM,52.7,25.0,34,30.12,10.0,SW,18.4,24.2,N/A,,Partly Cloudy,220,2013-03-29 00:58:00
7:58 PM,48.6,29.8,48,30.13,10.0,West,5.8,-,N/A,,Partly Cloudy,280,2013-03-29 01:58:00
8:58 PM,48.4,27.0,43,30.12,10.0,South,9.2,-,N/A,,Partly Cloudy,180,2013-03-29 02:58:00
9:58 PM,46.6,26.2,45,30.11,10.0,SSE,3.5,-,N/A,,Partly Cloudy,160,2013-03-29 03:58:00
10:58 PM,42.3,26.6,54,30.09,10.0,ESE,6.9,-,N/A,,Clear,120,2013-03-29 04:58:00
11:58 PM,34.7,26.1,71,30.09,10.0,North,3.5,-,N/A,,Clear,350,2013-03-29 05:58:00